OBJECT AC, 62403

Orbit data source: Space-Track

You're viewing an Uncataloged Satellite

Recently launched and/or uncataloged satellites may have evolving metadata. Metadata may include but not limited to: Owner, Maufacturer, Bus, Motor, and Mission.

OBJECT AC, 62403 is a satellite in LEO that was launched on Sat, 21 Dec 2024 UTC via an FALCON 9 launch vehicle from the Air Force Western Test Range (AFWTR). Unknown objects in Earth's orbit typically refer to objects detected orbiting the Earth but have not yet been identified or cataloged. These objects could be anything from previously untracked satellites, spent rocket stages, debris from satellite collisions, or even natural meteoroids temporarily captured by Earth's gravity.

Loading next visibility...
OBJECT AC details
Identifier
62403, 2024-247AC
Orbit
LEO
Last TLE update17 hours ago
Origin
Flag of TBDONDO Space (TBD)
ManufacturerONDO Space
MissionOperational Commercial Communications
Bus & MotorCUBESAT 0.5U, Unknown motor
Mass0.25 kg wet, 0.25 kg dry
Launch date (UTC)
2024-12-21 (2 months ago)
Launch vehicle
FALCON 9
Launch site
Air Force Western Test Range (AFWTR)
Object typeUnknown
Shape & HBRBox, 0.05 m
Radar Cross Section0.004 m², Small (<0.1 m²)

Expand to show TLE details & history

TLE from 17 hours ago
0 OBJECT AC
1 62403U 24247AC  25035.58731381  .00019838  00000-0  92707-3 0  9992
2 62403  44.9920 117.9919 0004447 342.8503  17.2226 15.19539738  6991
Epoch: 2025-02-04T14:05Z
Definitive object data (Epoch: 2025-02-04T14:05:43.913Z)
Latitude-0°
Longitude131.56847°
Altitude504.304 km
Speed7.615 km/s
True Right ascension07h 51m 58s
True Declination0° 00' 00"
Sunlit
Object was in full shadow at TLE epoch
Visualization TLE readout
Latitude-14.2397°
Longitude-37.5533°
Altitude512.62 km
Speed7.607 km/s
Apparent Right ascension20h 40m 27s
Apparent Declination-26° 26' 18"
Sunlit
Object is in daylight
Visualization observer readout
Local Sidereal Time08:47:14
Azimuth6.492° NNE
Elevation-76.448°
Doppler factor1
Orbital elements
Apogee altitude511.898 km
Perigee altitude505.773 km
Semi-major axis6,886.973 km
Eccentricity0.0004447
Inclination44.992°
RAAN117.9919°
Arg. of periapsis342.8503°
True anomaly17.2377°
Mean anomaly17.2226°
Eccentric anomaly17.23015°
Mean motion3.79752 °/min
BSTAR0.00092707
Orbital period94.8 mins
Loading maneuver chart data...
Loading historical data...
Loading historical data...
Loading historical data...
Loading historical data...
Loading historical data...
Loading historical data...
Loading historical data...

OBJECT AC Visibility forecast

Observer location: undefined°, undefined

Span
Click to sort rows by Start time (UTC) header in descending order
Start Az.
Max El. time (UTC)
Max El. Az.
Max El.
End time (UTC)
End Az.
4 mins2025-02-05 07:38:00.666Z174.841° S2025-02-05 07:40:00.666Z136.784° SSE18.097°2025-02-05 07:42:00.666Z101.309° ESE
6 mins2025-02-05 09:16:00.666Z245.676° WSW2025-02-05 09:19:00.666Z63.883° ENE44.542°2025-02-05 09:22:00.666Z66.375° ENE
6 mins2025-02-05 10:56:00.666Z292.702° NW2025-02-05 10:58:00.666Z337.782° N31.849°2025-02-05 11:02:00.666Z64.691° ENE
5 mins2025-02-05 12:36:00.666Z307.57° NW2025-02-05 12:38:00.666Z2.869° NNE36.355°2025-02-05 12:41:00.666Z83.583° E
6 mins2025-02-05 14:15:00.666Z281.522° WNW2025-02-05 14:18:00.666Z183.798° SSW37.396°2025-02-05 14:21:00.666Z134.5° SE
|